Location: Karcze
(52.0945°N, 22.4786°E)
Time: 02:21:51
(UTC+00:00)

Transit 2A Rocket - Pass Details

Date: 01 August 2021
Orbit: 586 x 917 km, 66.7° (Epoch: 27 September)

Event Time Altitude Azimuth Distance (km) Brightness Sun altitude
Rises 12:10:02 0° 188° (S) 2,849 8.5 51.2°
Reaches altitude 10° 12:12:22 10° 178° (S) 1,980 7.8 50.9°
Maximum altitude 12:16:20 32° 115° (ESE) 1,107 6.1 50.6°
Drops below altitude 10° 12:20:37 10° 53° (NE) 2,144 7.1 50.1°
Sets 12:23:14 0° 44° (NE) 3,125 7.8 49.9°
